Home > Weather > St. Pölten > Past weeks

Flag for Austria Weather for the Past 2 Weeks in St. Pölten, Lower Austria, Austria

Now
38 °F

Overcast.


Feels Like: 36 °F
Forecast: 27 / 45 °F
Wind: 3 mph from Southeast

Location: Wien / Hohe Warte

Current Time: Feb 13, 2016 at 1:53:43 AM

Latest Report: Feb 13, 2016 at 1:00 AM


Visibility: 16 mi

Pressure: 29.44 "Hg

Humidity: 86%

Dew point: 34 °F

Location of St. PöltenLocation

Historic Weather in St. Pölten — Graph

°F

St. Pölten Temperature Yesterday

Maximum temperature yesterday: 42 °F (at 4:00 PM)
Minimum temperature yesterday: 31 °F (at 7:00 AM)
Average temperature yesterday: 37 °F

High & Low Weather Summary for the Past Weeks

 TemperatureHumidityPressure
High56 °F (Feb 7, 3:00 PM)98% (Jan 30, 6:00 PM)30.42 "Hg (Jan 30, 6:00 PM)
Low31 °F (Feb 12, 7:00 AM)46% (Feb 7, 3:00 PM)29.26 "Hg (Feb 10, 12:00 AM)
Average44 °F75%29.94 "Hg
* Reported Midnight between Jan 28 and Jan 29 — Midnight between Feb 12 and Feb 13, St. Pölten, Weather by CustomWeather, © 2016

Note: Actual official high and low records may vary slightly from our data, if they occured in-between our weather recording intervals... More about our weather records

Advertising

St. Pölten Weather History for the Previous 24 Hours

 ConditionsComfort  
Time TempWeatherWind HumidityBarometerVisibility
12:00 AM
Sat, Feb 13
38 °FChilly.2 mph87%29.47 "HgN/A
10:00 PM
Fri, Feb 12
37 °FPassing clouds.5 mph88%29.50 "Hg19 mi
9:00 PM38 °FPassing clouds.6 mph87%29.54 "Hg19 mi
8:00 PM38 °FPassing clouds.6 mph85%29.56 "Hg19 mi
7:00 PM39 °FPassing clouds.5 mph79%29.59 "Hg19 mi
6:00 PM40 °FPassing clouds.6 mph70%29.60 "Hg22 mi
5:00 PM41 °FScattered clouds.3 mph72%29.62 "Hg17 mi
4:00 PM42 °FPartly sunny.2 mph70%29.64 "Hg16 mi
3:00 PM41 °FOvercast.2 mph72%29.65 "Hg16 mi
2:00 PM40 °FOvercast.1 mph71%29.67 "Hg16 mi
1:00 PM39 °FOvercast.2 mph74%29.70 "Hg16 mi
12:00 PM38 °FOvercast.2 mph74%29.71 "Hg19 mi
11:00 AM38 °FOvercast.2 mph76%29.73 "Hg19 mi
10:00 AM35 °FOvercast.1 mph83%29.75 "Hg19 mi
9:00 AM34 °FOvercast.1 mph86%29.75 "Hg19 mi
8:00 AM31 °FOvercast.2 mph91%29.75 "Hg18 mi
7:00 AM31 °FPassing clouds.2 mph90%29.76 "Hg19 mi
5:00 AM32 °FChilly.1 mph88%29.78 "HgN/A
4:00 AM31 °FPassing clouds.No wind90%29.78 "Hg25 mi
3:00 AM32 °FChilly.1 mph89%29.79 "HgN/A
1:00 AM36 °FChilly.2 mph80%29.80 "HgN/A
Weather by CustomWeather, © 2016

See weather overviewHow to use our weather pages